Volver al catálogo

TIROS 4

ActivoMeteoLEO
NORAD 226·PAYLOAD·🇺🇸 United States

Lanzado Feb 8, 1962 desde Cape Canaveral Space Force Station

Loading…

Próximos Pases (próximas 24 horas)

TLE

ActualizadoSource: Space-Track

Época: Sep 9, 2026, 06:22 UTC

1 00226U 62002A   26252.26544805 -.00000012  00000-0  42633-4 0  9997
2 00226  48.2977 350.1472 0076552 238.9922 120.3443 14.47214239380624

Sigue TIROS 4 en tiempo real con AllMySat

Download on the App Store